Regional Weather Roundup
Issued by NWS State College, PA

Home | Current Version | Previous Version | Text Only | Print | Product List | Glossary On
Versions: 1 2 3 4 5 6 7 8 9 10 11 12 13 14 15 16 17 18 19 20 21 22 23 24 25 26 27 28 29 30 31 32 33 34 35 36 37 38 39 40 41 42 43 44 45 46 47 48 49 50
000
ASUS41 KCTP 300003
RWRCTP

REGIONAL WEATHER ROUNDUP
NATIONAL WEATHER SERVICE STATE COLLEGE PA
800 PM EDT FRI JUL 29 2016

Note: "fair" indicates few or no clouds below 12,000 feet with no
significant weather and/or obstructions to visibility.

* = STATION THAT DOES NOT REPORT PRECIPITATION /E.G. RAIN...SNOW...ETC/
    THUNDER OR FOG.

PAZ002>004-007>009-013>016-020>023-029>032-300100-
WESTERN PENNSYLVANIA

CITY           SKY/WX    TMP DP  RH WIND       PRES   REMARKS
ERIE           CLOUDY    78  68  71 NE9       29.95R
MEADVILLE      CLOUDY    69  66  90 N3        29.99R
FRANKLIN*      CLOUDY    66  64  94 E3        30.00R
NEW CASTLE     MOCLDY    72  70  93 CALM      29.97R
BEAVER COUNTY  CLEAR     75  64  69 N7        29.96R
BUTLER*        CLEAR     73  64  73 NE12      29.98S
PITTSBURGH INT MOCLDY    80  62  54 S3        29.94R
PITTSBURGH     CLEAR     80  64  58 S5        29.94R
INDIANA*       CLEAR     79  66  65 VRB3      30.00R
LATROBE        PTCLDY    82  66  57 CALM      29.96R
WASHINGTON CO* CLEAR     81  64  57 S3        29.96R
$$

PAZ004>006-010>012-017>019-024>028-033>037-041-042-045-046-049>053-300100-
CENTRAL PENNSYLVANIA

CITY           SKY/WX    TMP DP  RH WIND       PRES   REMARKS
BRADFORD       PTCLDY    72  63  73 E3        30.01F
DUBOIS         MOCLDY    75  62  64 CALM      29.99R
CLEARFIELD     CLEAR     74  63  68 NE6       29.98R
JOHNSTOWN      CLEAR     78  60  53 NW5       30.00S
ALTOONA        CLOUDY    80  65  59 W3        29.96R
STATE COLLEGE  CLEAR     77  66  69 N5        29.95R
WILLIAMSPORT   MOCLDY    83  63  50 W8        29.89R
SELINSGROVE    CLOUDY    79  67  66 CALM      29.91R
FT INDIANTOWN  CLEAR     79  69  70 N2        29.89R
CAPITAL CITY   CLEAR     86  67  52 S6        29.88R
HARRISBURG     PTCLDY    84  74  71 VRB3      29.88R
YORK           CLOUDY    83  70  64 S3        29.90R
$$

PAZ038>040-043-044-047-048-054-055-060>062-067>071-300100-
EASTERN PENNSYLVANIA

CITY           SKY/WX    TMP DP  RH WIND       PRES   REMARKS
SCRANTON       CLEAR     84  63  49 NE6       29.92R
MOUNT POCONO   CLEAR     75  63  66 N6        29.98R
ALLENTOWN      LGT RAIN  82  68  62 NW6       29.89R
QUAKERTOWN*    CLEAR     82  68  61 CALM      29.90R
READING        CLEAR     85  67  54 S5        29.88R
LANCASTER      CLEAR     83  67  58 SW5       29.89R
COATESVILLE    CLEAR     81  70  69 CALM      29.93R
POTTSTOWN      CLEAR     83  68  60 S3        29.90R
BLUE BELL      CLEAR     79  72  78 CALM      29.88R
DOYLESTOWN     CLEAR     78  71  79 CALM      29.89R
WILLOW GROVE   NOT AVBL
NORTH PHILA    CLEAR     83  70  64 S3        29.90R
PHILADELPHIA   PTCLDY    84  68  58 SE5       29.89R
$$



USA.gov is the U.S. government's official web portal to all federal, state and local government web resources and services.